sat.trackr.live / text

‹ back to catalog

STARLINK-36582

NORAD 67599 · 2026-018L

PAYLOAD ACTIVE UNKNOWN

§ Identity

Operator
Country
US
Launch date
2026-01-29
Launch site
AFWTR
Launch vehicle
Mass (kg)
RCS (m²)

Purposes: comms

External: N2YO · Heavens-Above · Gunter

§ Orbital elements

Epoch: 2026-09-19T09:50:22.651296Z

Period
93.91 min
Inclination
97.2857°
Eccentricity
0.0000521
Mean motion
15.33450230 rev/d
Perigee alt
465.2 km
Apogee alt
465.9 km
Semi-major
6,843.7 km
B*
4.2146e-4
RAAN
325.8876°
Arg perigee
105.6802°
Mean anomaly
254.4498°
Rev number
3,707

§ Raw data

STARLINK-365821 67599U 26018L   26262.40998439  .00013558  00000+0  42146-3 0  99982 67599  97.2857 325.8876 0000521 105.6802 254.4498 15.33450230 37074

JSON: /api/v1/satellites/67599 · /tle

For live sub-satellite position, see the globe view (requires WebGL).

§ Visibility from observer

Set your observer location to see the next 7 days of passes ≥ 10°. The values pass through the URL so the page stays shareable.

No JS? Fill the form by hand. The geolocation button needs JavaScript.